• In Denmark
  • List of Countries
  • For 7 days
  • Water Temperature
  • Satellite Maps
  • Weather Map
  • Weather Widgets
  • user-avatar
    Login

    Hourly Weather Yerevan

    Today, 24 September, Monday

    Time Temperature Precipitation Wind Pressure Humidity
    00:00 +19°C° 0 mm 1 mps 692 mmHg 62%
    01:00 +19°C° 0 mm 1 mps 692 mmHg 65%
    02:00 +18°C° 0 mm 1 mps 692 mmHg 68%
    03:00 +18°C° 0 mm 1 mps 691 mmHg 73%
    04:00 +16°C° 0 mm 1 mps 691 mmHg 73%
    05:00 +16°C° 0 mm 1 mps 692 mmHg 74%
    06:00 +16°C° 0 mm 1 mps 692 mmHg 75%
    07:00 +19°C° 0 mm 1 mps 692 mmHg 66%
    08:00 +21°C° 0 mm 1 mps 692 mmHg 56%
    09:00 +24°C° 0 mm 2 mps 693 mmHg 47%
    10:00 +25°C° 0 mm 2 mps 693 mmHg 42%
    11:00 +26°C° 0 mm 2 mps 693 mmHg 37%
    12:00 +27°C° 0 mm 1 mps 693 mmHg 32%
    13:00 +28°C° 0 mm 1 mps 692 mmHg 30%
    14:00 +28°C° 0 mm 2 mps 692 mmHg 29%
    15:00 +28°C° 0 mm 2 mps 692 mmHg 27%
    16:00 +27°C° 0 mm 1 mps 692 mmHg 31%
    17:00 +25°C° 0 mm 1 mps 691 mmHg 35%
    18:00 +23°C° 0 mm 1 mps 691 mmHg 39%
    19:00 +22°C° 0 mm 1 mps 691 mmHg 42%
    20:00 +22°C° 0 mm 1 mps 692 mmHg 46%
    21:00 +21°C° 0 mm 1 mps 692 mmHg 49%
    22:00 +21°C° 0 mm 1 mps 692 mmHg 51%
    23:00 +20°C° 0 mm 1 mps 692 mmHg 53%

    Tomorrow, 25 September, Tuesday

    Time Temperature Precipitation Wind Pressure Humidity
    00:00 +20°C° 0 mm 1 mps 692 mmHg 55%
    01:00 +19°C° 0 mm 1 mps 692 mmHg 56%
    02:00 +19°C° 0 mm 1 mps 691 mmHg 56%
    03:00 +18°C° 0 mm 1 mps 691 mmHg 57%
    04:00 +18°C° 0 mm 1 mps 691 mmHg 56%
    05:00 +18°C° 0 mm 1 mps 691 mmHg 55%
    06:00 +16°C° 0 mm 1 mps 690 mmHg 54%
    07:00 +20°C° 0 mm 1 mps 691 mmHg 47%
    08:00 +23°C° 0 mm 1 mps 691 mmHg 40%
    09:00 +25°C° 0 mm 2 mps 691 mmHg 32%
    10:00 +26°C° 0 mm 2 mps 691 mmHg 30%
    11:00 +28°C° 0 mm 2 mps 691 mmHg 28%
    12:00 +29°C° 0 mm 2 mps 690 mmHg 25%
    13:00 +29°C° 0 mm 2 mps 690 mmHg 24%
    14:00 +30°C° 0 mm 2 mps 690 mmHg 24%
    15:00 +30°C° 0 mm 2 mps 689 mmHg 23%
    16:00 +28°C° 0 mm 2 mps 689 mmHg 27%
    17:00 +26°C° 0 mm 1 mps 689 mmHg 31%
    18:00 +24°C° 0 mm 1 mps 688 mmHg 34%
    19:00 +23°C° 0 mm 1 mps 689 mmHg 38%
    20:00 +23°C° 0 mm 1 mps 689 mmHg 42%
    21:00 +21°C° 0 mm 2 mps 690 mmHg 45%
    22:00 +21°C° 0.1 mm 2 mps 690 mmHg 50%
    23:00 +20°C° 0.1 mm 2 mps 690 mmHg 54%

    Day after tomorrow, 26 September, Wednesday

    Time Temperature Precipitation Wind Pressure Humidity
    00:00 +20°C° 0.1 mm 2 mps 690 mmHg 59%
    01:00 +19°C° 0.3 mm 2 mps 690 mmHg 62%
    02:00 +18°C° 0.3 mm 2 mps 690 mmHg 65%
    03:00 +18°C° 0.3 mm 2 mps 690 mmHg 69%
    04:00 +18°C° 0.2 mm 2 mps 689 mmHg 70%
    05:00 +17°C° 0.2 mm 2 mps 689 mmHg 71%
    06:00 +17°C° 0.2 mm 2 mps 689 mmHg 72%
    07:00 +19°C° 0.1 mm 2 mps 690 mmHg 64%
    08:00 +21°C° 0.1 mm 2 mps 690 mmHg 55%
    09:00 +24°C° 0.1 mm 2 mps 691 mmHg 47%
    10:00 +25°C° 0.1 mm 2 mps 691 mmHg 43%
    11:00 +26°C° 0.1 mm 2 mps 690 mmHg 39%
    12:00 +27°C° 0.1 mm 2 mps 690 mmHg 35%
    13:00 +28°C° 0.1 mm 2 mps 690 mmHg 33%
    14:00 +28°C° 0.1 mm 2 mps 690 mmHg 32%
    15:00 +28°C° 0.1 mm 2 mps 689 mmHg 31%
    16:00 +27°C° 0.1 mm 2 mps 689 mmHg 36%
    17:00 +25°C° 0.1 mm 2 mps 689 mmHg 40%
    18:00 +24°C° 0.1 mm 2 mps 689 mmHg 45%
    19:00 +23°C° 0 mm 2 mps 690 mmHg 50%
    20:00 +21°C° 0 mm 2 mps 690 mmHg 55%
    21:00 +20°C° 0 mm 3 mps 691 mmHg 59%
    22:00 +20°C° 0 mm 2 mps 691 mmHg 62%
    23:00 +19°C° 0 mm 2 mps 691 mmHg 64%

    27 September, Thursday

    Time Temperature Precipitation Wind Pressure Humidity
    00:00 +18°C° 0 mm 2 mps 691 mmHg 66%
    01:00 +18°C° 0 mm 2 mps 691 mmHg 68%
    02:00 +18°C° 0 mm 2 mps 691 mmHg 70%
    03:00 +17°C° 0 mm 2 mps 691 mmHg 72%
    04:00 +17°C° 0 mm 2 mps 692 mmHg 73%
    05:00 +16°C° 0 mm 2 mps 692 mmHg 74%
    06:00 +16°C° 0 mm 2 mps 692 mmHg 75%
    07:00 +18°C° 0 mm 2 mps 692 mmHg 67%
    08:00 +21°C° 0 mm 1 mps 693 mmHg 59%
    09:00 +23°C° 0 mm 1 mps 693 mmHg 51%
    10:00 +24°C° 0 mm 2 mps 693 mmHg 47%
    11:00 +25°C° 0 mm 2 mps 693 mmHg 42%
    12:00 +27°C° 0 mm 2 mps 693 mmHg 38%
    13:00 +27°C° 0 mm 2 mps 693 mmHg 36%
    14:00 +28°C° 0 mm 2 mps 692 mmHg 35%
    15:00 +28°C° 0 mm 2 mps 692 mmHg 33%
    16:00 +26°C° 0 mm 2 mps 692 mmHg 38%
    17:00 +25°C° 0 mm 2 mps 692 mmHg 44%
    18:00 +23°C° 0 mm 1 mps 692 mmHg 49%
    19:00 +21°C° 0 mm 2 mps 692 mmHg 53%
    20:00 +21°C° 0 mm 2 mps 693 mmHg 58%
    21:00 +20°C° 0 mm 2 mps 693 mmHg 62%
    22:00 +20°C° 0 mm 2 mps 693 mmHg 65%
    23:00 +19°C° 0 mm 2 mps 693 mmHg 67%

    28 September, Friday

    Time Temperature Precipitation Wind Pressure Humidity
    00:00 +20°C° 0 mm 1 mps 693 mmHg 70%
    01:00 +19°C° 0 mm 1 mps 693 mmHg 71%
    02:00 +19°C° 0 mm 1 mps 693 mmHg 72%
    03:00 +18°C° 0 mm 1 mps 693 mmHg 73%
    04:00 +18°C° 0 mm 1 mps 693 mmHg 74%
    05:00 +18°C° 0 mm 1 mps 693 mmHg 74%
    06:00 +16°C° 0 mm 1 mps 693 mmHg 74%
    07:00 +20°C° 0 mm 1 mps 694 mmHg 65%
    08:00 +22°C° 0 mm 1 mps 694 mmHg 55%
    09:00 +24°C° 0 mm 1 mps 694 mmHg 45%
    10:00 +25°C° 0 mm 1 mps 694 mmHg 41%
    11:00 +27°C° 0 mm 2 mps 694 mmHg 36%
    12:00 +28°C° 0 mm 2 mps 694 mmHg 32%
    13:00 +29°C° 0 mm 2 mps 693 mmHg 30%
    14:00 +29°C° 0 mm 2 mps 693 mmHg 29%
    15:00 +29°C° 0 mm 2 mps 693 mmHg 27%
    16:00 +28°C° 0 mm 2 mps 692 mmHg 31%
    17:00 +26°C° 0 mm 2 mps 692 mmHg 35%
    18:00 +24°C° 0 mm 1 mps 692 mmHg 40%
    19:00 +23°C° 0 mm 1 mps 692 mmHg 43%
    20:00 +23°C° 0 mm 1 mps 692 mmHg 47%
    21:00 +21°C° 0 mm 2 mps 693 mmHg 51%
    22:00 +22°C° 0 mm 1 mps 693 mmHg 52%
    23:00 +21°C° 0 mm 1 mps 692 mmHg 53%

    29 September, Saturday

    Time Temperature Precipitation Wind Pressure Humidity
    00:00 +21°C° 0 mm 1 mps 692 mmHg 55%
    01:00 +20°C° 0 mm 1 mps 692 mmHg 54%
    02:00 +20°C° 0 mm 1 mps 692 mmHg 53%
    03:00 +19°C° 0 mm 1 mps 692 mmHg 53%
    04:00 +19°C° 0 mm 1 mps 692 mmHg 51%
    05:00 +19°C° 0 mm 1 mps 691 mmHg 50%
    06:00 +19°C° 0 mm 1 mps 691 mmHg 48%
    07:00 +21°C° 0 mm 1 mps 692 mmHg 43%
    08:00 +24°C° 0 mm 2 mps 692 mmHg 37%
    09:00 +26°C° 0 mm 2 mps 692 mmHg 32%
    10:00 +28°C° 0 mm 2 mps 692 mmHg 29%
    11:00 +29°C° 0 mm 3 mps 692 mmHg 26%
    12:00 +30°C° 0 mm 3 mps 691 mmHg 22%
    13:00 +31°C° 0 mm 3 mps 691 mmHg 22%
    14:00 +31°C° 0 mm 3 mps 690 mmHg 21%
    15:00 +31°C° 0 mm 3 mps 690 mmHg 20%
    16:00 +30°C° 0 mm 3 mps 690 mmHg 23%
    17:00 +28°C° 0 mm 2 mps 690 mmHg 26%
    18:00 +26°C° 0 mm 2 mps 690 mmHg 29%
    19:00 +25°C° 0 mm 2 mps 690 mmHg 30%
    20:00 +25°C° 0 mm 2 mps 691 mmHg 30%
    21:00 +24°C° 0 mm 2 mps 691 mmHg 31%
    22:00 +23°C° 0 mm 2 mps 691 mmHg 31%
    23:00 +23°C° 0 mm 2 mps 691 mmHg 32%
    Show more